Showing default

OPS 9344 (IDSCS 22), 3287

Orbit data source: Space-Track

OPS 9344 (IDSCS 22), 3287 is a payload satellite owned by SAMSO (US) in GEO that was launched on Thu, 13 Jun 1968 UTC via a TITAN IIIC launch vehicle from the Air Force Eastern Test Range (AFETR). Payload-class satellites include a variety of spacecraft equipped with specific instruments for various scientific and technological missions. These include communications satellites like Starlink; space stations such as the ISS; scientific satellites like the Hubble; Earth observation satellites from companies like Planet Labs, Umbra, and HawkEye 360; GPS; miniature CubeSats for education and research; and military/defense satellites.

Loading next visibility...
Identifier
3287, 1968-050D
Orbit
GEO
Country
Flag of USUS
Related business
Manufacturer
Philco-Ford
Mission
Non-operational Defense Communications
Bus & Motor
IDCSP, Unknown motor
Mass
45 kg wet, 45 kg dry
Launch date (UTC)
1968-06-13 (57 years ago)
Launch vehicle
TITAN IIIC
Launch site
Air Force Eastern Test Range (AFETR)
Object type
Payload
Rocket body
Debris
Shape & HBR
Poly, 0.5 m
Radar Cross Section
0.926 m², Medium (>0.1 m² and < 1m²)

Expand to show TLE details & history
Last TLE update: 15 hours ago

TLE from 15 hours ago
0 OPS 9344 (IDSCS 22)
1 03287U 68050D   25259.39003233 -.00000123  00000-0  00000-0 0  9992
2 03287   6.6203  54.7662 0026970 139.4509 224.7376  1.07640730224326
Epoch: 2025-09-16T09:21Z
TLE epoch observation values (Epoch: 2025-09-16T09:21:38.793Z)
Latitude
0.44105°
Longitude
-77.28991°
Altitude
33,916.171 km
Speed
3.142 km/s
True Right ascension
03h 54m 48s
True Declination
0° 26' 26"
Sunlit
Object was in daylight at epoch
Visualization orbit readout
Latitude
Unknown
Longitude
Unknown
Altitude
Unknown
Speed
Unknown
Apparent Right ascension
Unknown
Apparent Declination
Unknown
Sunlit
N/A
Visualization observer readout
Local Sidereal Time
16:45:59
Azimuth
Unknown
Elevation
Unknown
Doppler factor
Unknown
Orbital elements
Apogee altitude
33,949.149 km
Perigee altitude
33,732.208 km
Semi-major axis
40,218.815 km
Eccentricity
0.0027
Inclination
6.6203°
RAAN
54.7662°
Arg. of periapsis
139.4509°
True anomaly
224.52059°
Mean anomaly
224.7376°
Eccentric anomaly
224.62904°
Mean motion
0.26909 °/min
Orbital period
1,337.84 mins
BSTAR
0
Loading maneuver chart data...
Computing Atmospheric mass density...
Loading historical data...
Loading historical data...
Loading historical data...
Loading historical data...
Loading historical data...
Loading historical data...
Loading historical data...

Documentation

Showing up to 5 results
|